Weather History for Monticello, KY

Change the Weather History Date:

Saturday, January 19, 2013

  Actual Average Record
Temperature  
Mean Temperature 38 °F -  
Max Temperature 54 °F 43 °F 69 °F (1974)
Min Temperature 22 °F 26 °F -3 °F (1977)
Degree Days  
Heating Degree Days 27    
Moisture  
Dew Point 25 °F    
Average Humidity 53    
Maximum Humidity 88    
Minimum Humidity 32    
Precipitation  
Precipitation 0.00 in - - ()
Sea Level Pressure  
Sea Level Pressure 30.29 in    
Wind  
Wind Speed 7 mph (SSW)    
Max Wind Speed 21 mph    
Max Gust Speed 29 mph    
Averages and records for this station are not official NWS values.
T = Trace of Precipitation, MM = Missing Value Source: NWS Daily Summary

Daily Weather History Graph

Daily Weather History Graph

Search for Another Location

Airport:

Trip Planner

Search our weather history database for the weather conditions in past years. The results will help you decide how hot, cold, wet, or windy it might be!

Date:

Astronomy

Jan. 19, 2013 Rise Set
Actual Time 6:49 AM CST 4:51 PM CST
Civil Twilight 6:21 AM CST 5:19 PM CST
Nautical Twilight 5:50 AM CST 5:50 PM CST
Astronomical Twilight 5:19 AM CST 6:21 PM CST
Moon 11:15 AM CST (1/19) 12:25 AM CST (1/19)
Length of Visible Light 10h 57m
Length of Day
10h 01m
First Quarter, 57% of the Moon is Illuminated
Jan 19
First Quarter
Jan 26
Full
Feb 3
Last Quarter
Feb 10
New
Feb 17
First Quarter

Hourly Weather History & Observations

Time (CST) Temp. Windchill Dew Point Humidity Pressure Visibility Wind Dir Wind Speed Gust Speed Precip Events Conditions
12:56 AM 30.0 °F - 23.0 °F 75% 30.40 in - Calm Calm - N/A   Clear
1:56 AM 25.2 °F - 20.1 °F 81% 30.42 in - Calm Calm - N/A   Clear
2:56 AM 25.2 °F 20.9 °F 21.0 °F 84% 30.40 in - SSW 3.5 mph - N/A   Clear
3:56 AM 22.1 °F 17.4 °F 19.0 °F 88% 30.40 in - SSW 3.5 mph - N/A   Clear
4:56 AM 26.1 °F 19.4 °F 21.0 °F 81% 30.39 in - South 5.8 mph - N/A   Clear
5:56 AM 34.9 °F 29.9 °F 24.1 °F 65% 30.39 in - South 5.8 mph - N/A   Clear
6:56 AM 36.9 °F 33.1 °F 25.2 °F 63% 30.39 in - South 4.6 mph - N/A   Clear
7:56 AM 39.9 °F 33.9 °F 26.1 °F 58% 30.39 in - SSE 9.2 mph - N/A   Clear
8:56 AM 45.9 °F 41.7 °F 27.1 °F 48% 30.40 in - South 8.1 mph - N/A   Clear
9:56 AM 48.9 °F - 28.0 °F 44% 30.39 in - SSW 11.5 mph - N/A   Clear
10:56 AM 50.9 °F - 27.1 °F 40% 30.35 in - SW 16.1 mph 28.8 mph N/A   Clear
11:56 AM 52.9 °F - 27.1 °F 37% 30.30 in - SW 20.7 mph 27.6 mph N/A   Clear
12:56 PM 54.0 °F - 27.1 °F 36% 30.25 in - SSW 18.4 mph 25.3 mph N/A   Clear
1:56 PM 54.9 °F - 27.1 °F 34% 30.22 in - SSW 13.8 mph - N/A   Clear
2:56 PM 54.9 °F - 25.2 °F 32% 30.20 in - SSW 15.0 mph - N/A   Clear
3:56 PM 52.9 °F - 25.2 °F 34% 30.19 in - South 12.7 mph 21.9 mph N/A   Clear
4:56 PM 48.9 °F - 27.1 °F 43% 30.19 in - SSW 11.5 mph - N/A   Clear
5:56 PM 47.8 °F - 27.1 °F 45% 30.18 in - South 10.4 mph - N/A   Clear
6:56 PM 47.8 °F - 26.1 °F 43% 30.18 in - SSW 13.8 mph 19.6 mph N/A   Clear
7:56 PM 46.9 °F - 25.2 °F 43% 30.17 in - SSW 12.7 mph - N/A   Clear
8:56 PM 45.9 °F 40.8 °F 27.1 °F 48% 30.17 in - SSW 10.4 mph - N/A   Clear
9:56 PM 45.9 °F 40.8 °F 28.0 °F 50% 30.17 in - SW 10.4 mph - N/A   Clear
10:56 PM 45.9 °F 39.1 °F 28.0 °F 50% 30.17 in - SW 16.1 mph 24.2 mph N/A   Clear
11:56 PM 45.9 °F 39.4 °F 29.1 °F 52% 30.16 in - SW 15.0 mph - N/A   Clear